THOR ABLESTAR DEB, 268

Orbit data source: Space-Track

THOR ABLESTAR DEB, 268 is space debris in LEO originally from a launch on Thu, 29 Jun 1961 UTC launched from the Air Force Eastern Test Range (AFETR). Debris objects in space refer to the collection of defunct objects orbiting the Earth. Examples of debris include non-operational satellites, rocket bodies, and fragments generated from explosions, collisions, or faulty payload assembly.

Loading next visibility...
Identifier
268, 1961-015CN
Orbit
LEO
Country
Flag of USUS
Related business
Manufacturer
Unknown
Mission
Spacecraft
Bus & Motor
Unknown
Mass
Unknown
Launch date (UTC)
1961-06-29 (64 years ago)
Launch vehicle
Unknown
Launch site
Air Force Eastern Test Range (AFETR)
Object type
Payload
Rocket body
Debris
Shape & HBR
Unknown shape, 0.1 m
Radar Cross Section
Medium (>0.1 m² and <1 m²)

Expand to show TLE details & history
Last TLE update: 17 hours ago

TLE from 17 hours ago
0 THOR ABLESTAR DEB
1 00268U 61015CN  25289.12408017  .00000526  00000-0  16962-2 0  9997
2 00268  67.9379 294.0510 0650752 323.0337  92.9249 12.51570586922712
Epoch: 2025-10-16T02:58Z
TLE epoch observation values (Epoch: 2025-10-16T02:58:40.526Z)
Latitude
56.03668°
Longitude
-98.72455°
Altitude
1,525.381 km
Speed
7.081 km/s
True Right ascension
22h 03m 19s
True Declination
55° 53' 34"
Sunlit
Object was in daylight at epoch
Visualization orbit readout
Latitude
Unknown
Longitude
Unknown
Altitude
Unknown
Speed
Unknown
Apparent Right ascension
Unknown
Apparent Declination
Unknown
Sunlit
N/A
Visualization observer readout
Local Sidereal Time
14:44:52
Azimuth
Unknown
Elevation
Unknown
Doppler factor
Unknown
Orbital elements
Apogee altitude
1,966.134 km
Perigee altitude
946.478 km
Semi-major axis
7,834.443 km
Eccentricity
0.06508
Inclination
67.9379°
RAAN
294.051°
Arg. of periapsis
323.0337°
True anomaly
100.32088°
Mean anomaly
92.9249°
Eccentric anomaly
96.62851°
Mean motion
3.1299 °/min
Orbital period
115.02 mins
BSTAR
0.0016962

Documentation

Showing up to 5 results
|